Probability
0 0 0 0 0 0 0 0 0 0 0 0 0 0 0 0 0 0 0 0 0 0 0 0 0 0 0 0 0 0 0 0 0 0 0 0 0 0 0 3 0 0 0 0
0 0 0 0 0 0 0 0 0 0 0 0 0 0 0 0 0 0 0 0 0 0 0 0 0 0 0 0 0 0 0 0 0 0 0 0 0 0 0 0 0 0 0 0
0 0 0 0 0 0 0 0 0 0 0 0 0 0 0 0 0 0 0 0 0 0 0 0 0 0 0 0 0 0 0 0 0 0 0 0 0 0 0 0 0 0 0 0
0 0 0 0 0 0 0 0 0 0 0 0 0 0 0 0 0 0 0 0 0 0 0 0 0 0 0 0 0 0 0 0 0 0 0 0 0 0 0 0 0 0 0 0
0 0 0 0 0 0 0 0 0 0 0 0 0 0 0 0 0 0 0 0 0 0 0 0 0 0 0 0 0 0 0 0 0 0 0 0 0 0 0 0 0 0 0 0
0 0 0 0 0 0 0 0 0 0 0 0 0 0 0 0 0 0 0 0 0 0 0 0 0 0 0 0 0 0 0 0 0 0 0 0 0 0 0 0 0 0 0 0
0 0 0 0 0 0 0 0 0 0 0 0 0 0 0 0 0 0 0 0 0 0 0 0 0 0 0 0 0 0 0 0 0 0 0 0 0 0 0 0 0 0 0 0
0 0 0 0 0 0 0 0 0 0 0 0 0 0 0 0 0 0 0 0 0 0 0 0 0 0 0 0 0 0 0 0 0 0 0 0 0 0 0 0 0 0 0 0
0 0 0 0 0 0 0 0 0 0 0 0 0 0 0 0 0 0 0 0 0 0 0 0 0 0 0 0 0 0 0 0 0 0 0 0 0 0 0 0 0 0 0 0
0 0 0 0 0 0 0 0 0 0 0 0 0 0 0 0 0 0 0 0 0 0 0 0 0 0 0 0 0 0 0 0 0 0 0 0 0 0 0 0 0 0 0 0
0 0 0 0 0 0 0 0 0 0 0 0 0 0 0 0 0 0 0 0 0 0 0 0 0 0 0 0 0 0 0 0 0 0 0 0 0 0 0 0 0 0 0 0
0 0 0 0 0 0 0 0 0 0 0 0 0 0 0 0 0 0 0 0 0 0 0 0 0 0 0 0 0 0 0 0 0 0 0 0 0 0 0 0 0 0 0 0
0 0 0 0 0 0 0 0 0 0 0 0 0 0 0 0 0 0 0 0 0 0 0 0 0 0 0 0 0 0 0 0 0 0 0 0 0 0 0 0 0 0 0 0
0 0 0 0 0 0 0 0 0 0 0 0 0 0 0 0 0 0 0 0 0 0 0 0 0 0 0 0 0 0 0 0 0 0 0 0 0 0 0 0 0 0 0 0
0 0 0 0 0 0 0 0 0 0 0 0 0 0 0 0 0 0 0 0 0 0 0 0 0 0 0 0 0 0 0 0 0 0 0 0 0 0 0 0 0 0 0 0
0 0 0 0 0 0 0 0 0 0 0 0 0 0 0 0 0 0 0 0 0 0 0 0 0 0 0 0 0 0 0 0 0 0 0 0 0 0 0 0 0 0 0 0
0 0 0 0 0 0 0 0 0 0 0 0 0 0 0 0 0 0 0 0 0 0 0 0 0 0 0 0 0 0 0 0 0 0 0 0 0 0 0 0 0 0 0 0
0 0 0 0 0 0 0 0 0 0 0 0 0 0 0 0 0 0 0 0 0 0 0 0 0 0 0 0 0 0 0 0 0 0 0 0 0 0 0 0 0 0 0 0
0 0 0 0 0 0 0 0 0 0 0 0 0 0 0 0 0 0 0 0 0 0 0 0 0 0 0 0 0 0 0 0 0 0 0 0 0 0 0 0 0 0 0 0
0 0 0 0 0 0 0 0 0 0 0 0 0 0 0 0 0 0 0 0 0 0 0 0 0 0 0 0 0 0 0 0 0 0 0 0 0 0 0 0 0 0 0 0
0 0 0 0 0 0 0 0 0 0 0 0 0 0 0 0 0 0 0 0 0 0 0 0 0 0 0 0 0 0 0 0 0 0 0 0 0 0 0 0 0 0 0 0
0 0 0 0 0 0 0 0 0 0 0 0 0 0 0 0 0 0 0 0 0 0 0 0 0 0 0 0 0 0 0 0 0 0 0 0 0 0 0 0 0 0 0 0
0 0 0 0 0 0 0 0 0 0 0 0 0 0 0 0 0 0 0 0 0 0 0 0 0 0 0 0 0 0 0 0 0 0 0 0 0 0 0 0 0 0 0 0
0 0 0 0 0 0 0 0 0 0 0 0 0 0 0 0 0 0 0 0 0 0 0 0 0 0 0 0 0 0 0 0 0 0 0 0 0 0 0 0 0 0 0 0
0 0 0 0 0 0 0 0 0 0 0 0 0 0 0 0 0 0 0 0 0 0 0 0 0 0 0 0 0 0 0 0 0 0 0 0 0 0 0 0 0 0 0 0
0 0 0 0 0 0 0 0 0 0 0 0 0 0 0 0 0 0 0 0 0 0 0 0 0 0 0 0 0 0 0 0 0 0 0 0 0 0 0 0 0 0 0 0
Height
5748 5748 5745 5744 5742 5740 5738 5737 5736 5735 5733 5732 5732 5732 5732 5730 5730 5730 5730 5730 5730 5730 5730 5730 5731 5731 5732 5733 5734 5735 5736 5737 5738 5739 5741 5741 5743 5743 5744 5745 5746 5747 5748 5748
5740 5738 5737 5734 5732 5730 5728 5727 5726 5725 5723 5722 5722 5722 5721 5720 5720 5720 5720 5720 5720 5721 5721 5721 5721 5722 5723 5724 5725 5726 5727 5728 5730 5731 5732 5734 5735 5736 5737 5737 5738 5739 5740 5741
5730 5729 5726 5724 5722 5720 5718 5717 5716 5714 5712 5711 5711 5711 5712 5710 5710 5710 5710 5710 5710 5710 5710 5711 5712 5713 5713 5714 5715 5717 5718 5720 5721 5722 5724 5725 5726 5728 5729 5730 5731 5731 5732 5733
5720 5718 5716 5714 5712 5710 5708 5707 5705 5703 5702 5701 5701 5698 5702 5700 5699 5699 5699 5699 5699 5699 5700 5701 5702 5703 5704 5705 5706 5707 5709 5710 5712 5714 5715 5717 5718 5719 5720 5721 5722 5723 5724 5725
5711 5709 5706 5704 5702 5700 5698 5696 5695 5693 5690 5689 5690 5687 5691 5690 5689 5688 5688 5688 5688 5689 5690 5691 5692 5693 5694 5695 5696 5697 5699 5701 5702 5704 5706 5707 5709 5710 5711 5713 5714 5715 5716 5716
5701 5699 5696 5694 5692 5690 5688 5686 5684 5682 5680 5679 5680 5678 5678 5678 5678 5678 5678 5677 5677 5678 5679 5680 5681 5682 5683 5684 5686 5688 5689 5691 5693 5694 5696 5698 5699 5701 5702 5703 5705 5706 5707 5707
5692 5689 5686 5684 5682 5680 5678 5676 5673 5670 5669 5668 5668 5666 5667 5667 5667 5667 5667 5667 5667 5667 5668 5669 5670 5671 5672 5674 5676 5678 5679 5681 5683 5685 5686 5688 5689 5691 5692 5694 5695 5696 5697 5698
5681 5680 5677 5674 5672 5669 5667 5665 5663 5660 5658 5657 5657 5655 5658 5657 5656 5655 5655 5655 5656 5657 5657 5658 5659 5660 5662 5663 5665 5667 5669 5671 5673 5675 5676 5678 5679 5681 5682 5684 5685 5686 5687 5688
5670 5669 5667 5663 5660 5658 5656 5654 5652 5650 5647 5645 5645 5644 5646 5645 5644 5644 5644 5645 5645 5646 5647 5648 5649 5650 5651 5653 5655 5656 5659 5661 5663 5664 5666 5668 5669 5671 5672 5673 5675 5676 5677 5678
5659 5657 5655 5652 5650 5647 5645 5643 5641 5639 5636 5634 5634 5634 5634 5634 5633 5633 5633 5634 5634 5635 5636 5637 5638 5639 5641 5642 5644 5646 5648 5650 5652 5654 5655 5657 5659 5660 5662 5663 5665 5666 5667 5668
5649 5646 5644 5640 5638 5636 5634 5632 5630 5628 5626 5625 5623 5625 5624 5623 5622 5622 5623 5623 5623 5624 5625 5626 5627 5628 5630 5631 5633 5635 5636 5638 5640 5642 5644 5646 5648 5649 5651 5652 5654 5655 5656 5657
5637 5634 5632 5630 5627 5624 5622 5621 5620 5618 5616 5614 5613 5616 5614 5612 5611 5611 5612 5612 5612 5613 5614 5615 5616 5617 5619 5620 5622 5623 5625 5627 5629 5631 5633 5635 5637 5638 5640 5641 5643 5644 5645 5646
5626 5623 5620 5618 5618 5615 5612 5610 5608 5606 5605 5604 5603 5605 5603 5602 5601 5600 5600 5601 5601 5602 5603 5603 5605 5606 5607 5609 5610 5612 5613 5615 5617 5619 5621 5623 5625 5627 5629 5630 5632 5633 5634 5635
5615 5612 5611 5609 5605 5602 5601 5600 5597 5595 5593 5593 5593 5593 5593 5591 5590 5590 5590 5589 5590 5590 5591 5592 5593 5594 5596 5597 5599 5600 5602 5604 5605 5607 5609 5612 5614 5616 5617 5619 5620 5621 5623 5624
5604 5602 5599 5597 5594 5592 5590 5589 5587 5584 5583 5582 5582 5581 5581 5580 5579 5579 5578 5578 5578 5579 5580 5580 5581 5583 5584 5585 5587 5588 5590 5592 5594 5596 5598 5600 5602 5604 5605 5607 5609 5610 5611 5613
5593 5590 5588 5587 5584 5580 5579 5578 5576 5574 5572 5571 5570 5570 5569 5568 5567 5567 5567 5566 5567 5567 5568 5569 5570 5571 5572 5573 5575 5577 5578 5580 5582 5584 5586 5588 5590 5592 5594 5596 5597 5599 5600 5601
5582 5579 5576 5575 5572 5569 5568 5568 5565 5563 5561 5560 5559 5560 5557 5557 5556 5555 5555 5554 5554 5555 5556 5557 5558 5558 5560 5561 5563 5564 5566 5568 5570 5572 5574 5576 5578 5580 5582 5584 5586 5587 5589 5590
5571 5568 5565 5563 5561 5558 5560 5556 5554 5551 5550 5548 5547 5547 5546 5545 5544 5543 5543 5542 5542 5543 5544 5544 5545 5546 5548 5549 5550 5552 5554 5555 5558 5560 5562 5564 5566 5568 5570 5572 5574 5576 5577 5579
5561 5558 5554 5552 5549 5547 5547 5545 5541 5539 5539 5537 5535 5535 5534 5533 5533 5532 5531 5530 5530 5531 5531 5532 5533 5533 5535 5536 5538 5539 5541 5543 5545 5547 5549 5551 5554 5556 5558 5560 5562 5564 5566 5567
5551 5548 5545 5541 5538 5536 5537 5533 5530 5529 5527 5526 5524 5523 5523 5522 5522 5522 5520 5519 5519 5519 5519 5519 5520 5521 5522 5524 5525 5527 5529 5531 5533 5535 5537 5539 5541 5544 5546 5548 5550 5552 5554 5555
5541 5537 5535 5531 5527 5526 5525 5522 5520 5519 5518 5515 5513 5512 5511 5510 5510 5510 5509 5508 5507 5507 5507 5507 5508 5509 5510 5511 5513 5515 5517 5519 5520 5522 5524 5527 5529 5531 5533 5535 5537 5539 5541 5543
5530 5527 5525 5521 5518 5518 5514 5511 5510 5508 5506 5504 5502 5501 5500 5499 5498 5497 5497 5496 5496 5496 5496 5496 5496 5497 5498 5499 5501 5503 5505 5507 5508 5510 5512 5514 5516 5519 5521 5523 5525 5527 5529 5531
5521 5518 5514 5512 5511 5508 5504 5501 5499 5497 5495 5493 5491 5490 5489 5488 5487 5486 5486 5485 5485 5485 5485 5485 5485 5486 5487 5488 5490 5492 5494 5495 5497 5499 5501 5503 5505 5507 5509 5511 5512 5514 5516 5519
5511 5508 5505 5502 5501 5497 5494 5491 5489 5486 5484 5482 5481 5479 5478 5477 5476 5475 5475 5474 5474 5474 5474 5475 5475 5476 5477 5477 5479 5480 5482 5484 5486 5488 5489 5491 5493 5495 5497 5499 5501 5503 5505 5507
5502 5499 5495 5493 5491 5488 5485 5481 5479 5477 5475 5472 5471 5469 5468 5466 5465 5465 5464 5464 5463 5463 5463 5463 5464 5465 5466 5466 5468 5469 5471 5473 5475 5476 5478 5480 5481 5483 5485 5487 5489 5491 5493 5495
5493 5490 5487 5484 5482 5478 5476 5473 5470 5467 5465 5463 5461 5460 5458 5456 5455 5454 5453 5452 5452 5452 5452 5452 5452 5453 5454 5455 5457 5458 5459 5461 5463 5465 5467 5469 5470 5472 5473 5476 5478 5480 5482 5484
Wind_Speed
30 31 31 32 33 34 34 34 34 34 34 34 33 33 33 34 34 33 33 33 33 32 32 32 33 33 33 32 33 33 32 31 31 31 31 30 30 31 31 30 30 30 30 31
32 33 34 34 35 35 35 36 36 36 36 36 35 34 34 35 34 34 34 33 33 33 33 34 34 34 33 33 33 34 33 33 33 32 32 32 31 31 31 31 31 31 31 31
35 35 35 36 36 36 36 37 37 37 37 37 37 36 35 35 35 35 35 35 34 34 34 34 34 34 34 34 34 34 34 34 34 34 34 34 33 33 32 32 32 32 32 31
35 35 35 35 35 35 36 36 37 38 38 38 37 38 34 35 35 35 36 35 35 35 34 34 34 34 34 35 35 35 35 35 35 35 35 35 34 34 34 33 33 32 32 31
35 35 35 35 34 35 36 36 37 37 38 39 37 39 36 35 35 35 36 36 36 35 35 35 35 35 35 35 35 35 35 35 35 36 36 35 35 35 35 35 34 34 33 33
35 35 35 35 35 36 36 36 37 38 38 39 37 38 37 35 35 35 35 35 35 35 36 36 36 36 36 36 36 36 36 36 36 36 36 36 36 36 36 35 35 35 35 35
35 35 36 36 36 37 37 37 38 39 39 39 37 37 36 35 35 35 35 35 35 35 35 36 36 36 36 36 36 36 36 36 37 37 37 37 37 37 37 37 36 36 36 36
36 36 36 36 37 38 38 37 37 39 40 39 38 37 35 34 34 35 35 35 35 35 35 35 35 36 36 36 37 37 37 37 37 38 38 37 37 37 37 37 37 37 37 37
37 38 37 37 38 38 38 38 37 38 39 39 39 38 36 34 33 34 34 35 35 35 36 35 36 36 36 36 37 37 38 38 38 38 39 38 38 38 37 37 38 38 38 38
38 39 38 38 39 38 38 37 36 36 37 39 38 37 36 33 33 33 33 34 34 35 35 36 36 36 36 36 37 38 38 39 39 39 39 39 39 38 38 39 39 39 39 39
39 40 39 39 38 37 37 36 36 36 37 38 38 37 36 35 35 34 33 34 34 34 35 36 36 37 37 37 38 38 39 39 40 40 40 40 39 39 39 39 39 39 40 40
40 40 39 38 38 37 37 36 35 36 36 37 38 38 36 36 35 35 34 34 34 35 35 37 37 37 38 38 38 38 39 39 40 40 40 40 40 40 39 39 39 39 39 40
40 39 39 38 37 36 35 35 35 36 37 38 38 37 36 36 35 35 35 34 34 35 35 36 37 38 38 39 39 39 39 40 40 40 40 40 40 40 40 40 40 39 39 39
39 38 38 37 36 36 34 34 36 36 37 38 37 37 35 35 36 36 35 35 34 34 35 36 37 38 39 39 40 40 40 40 40 41 41 41 41 41 41 41 40 40 40 39
39 38 37 37 36 36 35 35 35 37 37 38 37 37 35 35 35 36 36 36 35 35 36 36 37 38 38 38 39 40 41 41 40 41 41 42 42 42 41 41 41 41 40 39
38 39 38 37 36 36 37 36 37 37 38 39 38 36 36 36 36 36 37 37 37 37 37 37 38 38 38 38 39 40 40 41 41 41 41 42 42 42 42 42 42 41 40 40
38 39 39 38 37 37 37 36 36 36 37 38 38 36 36 36 37 36 36 37 37 37 38 38 39 39 38 39 40 41 41 41 42 42 42 42 42 43 43 42 42 41 41 40
37 36 37 36 36 36 36 36 35 36 36 37 37 36 36 36 36 36 36 36 37 38 38 39 40 39 39 40 40 41 41 42 42 42 43 43 43 43 43 43 42 41 41 40
35 35 35 36 36 35 34 34 34 35 35 36 36 36 35 35 35 35 35 36 36 37 38 39 39 40 40 40 41 41 41 41 42 43 43 43 43 43 43 43 42 41 41 41
34 34 33 33 34 34 33 33 33 34 34 34 35 35 34 35 35 34 36 36 36 36 37 38 39 40 40 40 41 41 41 41 42 42 42 43 43 43 43 43 43 43 42 41
33 34 33 33 33 34 33 33 33 33 33 33 33 33 33 33 34 34 34 34 35 35 36 36 37 38 39 39 39 39 40 41 41 41 42 42 42 42 42 42 43 43 43 42
33 33 33 33 33 33 32 32 32 33 34 34 34 33 32 33 33 34 34 34 34 34 35 35 35 36 37 38 38 37 38 39 39 40 40 41 41 40 41 41 41 42 42 42
32 31 31 32 32 32 32 33 33 33 34 34 34 34 34 33 33 33 33 33 33 33 33 33 33 34 35 36 38 38 38 38 38 38 38 39 39 39 39 39 39 40 41 41
31 31 31 31 30 31 31 32 32 32 31 32 33 33 32 32 32 33 33 33 33 33 33 33 33 33 34 35 36 37 38 38 38 38 38 38 39 39 39 39 39 39 39 39
30 31 31 31 30 31 31 31 31 31 31 31 32 33 32 31 31 31 32 32 33 33 33 33 33 33 33 34 35 35 36 37 37 37 37 37 38 39 39 38 38 38 38 38
29 30 31 30 30 30 29 30 31 30 30 31 31 30 31 31 31 31 31 32 32 33 33 33 33 34 34 34 35 35 36 36 36 36 36 37 37 37 38 37 37 37 37 36
Wind_Direction
284 283 282 282 282 281 280 279 278 277 275 273 272 269 267 266 265 265 265 265 264 262 261 260 260 259 258 257 257 256 255 254 255 255 255 255 255 255 257 256 256 256 257 258
284 283 283 282 281 281 280 279 278 276 275 274 273 271 269 267 266 265 264 264 263 262 261 260 259 258 257 256 255 255 255 254 254 254 254 255 255 255 256 257 258 258 259 259
285 285 283 282 281 280 279 279 278 276 275 274 274 271 269 268 266 265 264 263 262 261 260 259 259 258 257 256 255 254 254 254 254 254 254 255 255 256 257 258 259 259 259 259
287 286 284 284 283 281 279 279 278 277 276 275 274 273 268 268 267 265 264 263 262 261 261 259 259 258 257 256 255 255 253 253 253 254 255 255 255 255 257 258 258 259 260 260
288 286 285 284 283 282 281 279 278 278 277 276 275 274 270 268 267 265 264 263 262 261 260 259 259 258 257 255 255 255 254 253 253 254 255 255 255 255 256 257 258 259 260 260
287 286 284 284 283 283 282 280 279 278 277 276 276 275 272 269 267 265 263 263 262 261 260 258 258 257 256 254 254 254 254 254 253 254 255 255 255 255 255 256 257 258 260 260
287 286 285 284 283 282 282 282 281 280 278 277 276 275 274 270 267 265 263 262 261 261 259 258 258 257 256 254 253 253 253 254 254 254 254 255 255 255 256 256 257 258 259 259
289 287 287 285 284 284 282 281 280 280 280 278 276 274 274 272 268 265 263 261 260 260 259 258 257 257 256 254 253 252 252 253 254 254 254 254 255 255 256 256 257 257 258 259
289 287 287 286 285 284 282 279 278 278 279 279 277 275 273 271 269 266 263 262 262 260 259 258 257 256 255 254 252 251 251 252 253 253 253 253 254 255 256 256 256 257 258 259
289 288 288 287 285 283 282 279 277 276 278 278 277 276 273 271 269 268 266 263 262 261 260 258 257 256 255 254 253 252 252 252 253 253 254 254 254 254 256 256 257 258 259 260
291 289 288 287 284 283 281 278 275 274 275 276 277 276 274 273 271 269 266 264 262 261 260 257 256 255 254 254 254 253 253 253 254 254 254 254 254 254 256 257 258 258 259 259
292 290 288 287 285 282 280 278 276 274 274 274 276 276 274 272 271 269 266 264 263 261 260 257 256 255 254 253 253 253 254 253 254 254 254 254 254 254 255 256 258 259 260 260
292 290 289 288 286 283 280 277 275 273 272 273 274 276 276 273 271 269 268 266 263 261 259 258 256 255 255 255 253 253 254 254 254 254 254 254 254 254 255 256 258 258 259 260
290 289 289 288 286 284 281 277 275 274 274 274 274 275 274 273 271 269 268 267 264 262 260 259 257 256 255 255 254 253 253 253 253 254 254 254 254 254 255 256 257 258 259 259
289 288 288 287 285 283 281 278 276 274 275 276 277 275 273 272 271 269 267 266 264 262 261 259 257 256 256 254 254 253 252 253 253 254 254 254 253 254 255 256 257 258 259 260
288 288 287 285 283 282 280 279 277 277 276 276 276 275 274 271 270 270 269 266 263 262 261 259 256 255 255 254 254 253 253 253 253 253 253 253 253 253 254 255 256 258 259 259
288 288 288 286 284 282 280 280 280 278 277 276 276 275 273 271 270 270 269 266 263 262 261 259 257 255 255 254 254 254 254 254 253 252 252 252 253 253 254 255 256 258 259 260
290 288 288 288 287 285 284 283 282 280 278 278 277 276 274 273 271 269 269 268 266 264 262 260 257 256 256 254 254 254 254 254 253 252 251 251 252 253 253 254 256 257 259 259
289 289 289 289 288 287 285 285 284 282 279 277 277 277 275 273 272 270 269 268 267 266 263 260 258 257 256 254 253 254 254 254 253 252 251 251 252 253 253 254 255 256 258 259
289 289 290 290 289 289 288 286 284 282 280 278 277 276 275 273 272 269 269 269 267 267 265 262 259 257 256 255 253 253 253 253 253 252 252 251 253 253 254 254 255 256 257 257
289 288 288 289 289 289 288 286 283 281 281 280 279 278 275 273 273 272 271 270 269 267 266 264 262 259 257 255 253 251 251 251 252 252 252 252 253 253 253 254 254 255 255 255
293 291 290 288 290 291 288 286 282 281 279 280 280 279 276 275 274 273 272 270 269 268 266 264 262 260 258 256 254 252 251 252 252 253 252 252 253 253 253 254 254 254 254 254
292 292 291 289 289 289 287 286 284 283 281 280 279 277 276 276 275 274 272 270 268 267 265 264 262 261 259 257 255 253 252 253 253 253 252 251 252 252 252 253 253 253 253 253
292 291 291 290 290 289 287 285 284 284 283 282 279 278 278 277 275 273 272 270 268 266 265 264 263 261 259 258 257 255 254 254 253 253 253 253 253 253 252 253 253 253 253 253
293 291 291 291 291 290 287 286 286 285 283 282 282 281 280 278 276 274 272 270 268 267 266 265 264 261 258 257 256 255 254 254 254 254 254 254 255 254 252 252 253 253 254 253
296 293 292 293 291 290 289 288 288 286 286 285 284 283 282 280 279 277 275 272 270 269 267 265 264 262 258 256 256 255 254 253 253 254 254 255 255 254 252 252 253 253 252 252